#timestamp,LO_Frequency,Hit,StdDev 
1598121315.5,286047020.9,P
1598121335.4,286047023.4,P
1598121355.2,286047023.6,P
1598121375.0,286047022.8,Y
1598121375.9,286047022.8,P
1598121395.8,286047004.4,P
1598121415.6,286047011.9,N
1598121435.4,286047004.4,N
1598121455.3,286047002.9,N
1598121475.1,286047003.6,N
1598121495.9,286047003.2,N
1598121515.7,286047005.7,N
1598121535.5,286047005.0,N
1598121555.4,286047004.9,N
1598121575.2,286047007.3,N
1598121595.0,286047004.9,N
1598121595.9,286047004.9,N
1598121615.8,286047005.3,N
1598121635.6,286047006.0,N
1598121655.5,286047003.5,N
1598121675.3,286047005.8,N
1598121695.1,286047002.9,N
1598121715.9,286047005.1,N
1598121735.7,286047007.1,N
1598121755.5,286047006.2,N
1598121775.4,286047006.7,N
1598121795.2,286047007.2,N
1598121815.1,286047006.8,N
1598121816.0,286047006.8,N
1598121835.8,286047008.5,N
1598121855.6,286047006.5,N
1598121875.5,286047008.3,N
1598121895.3,286047009.2,N
1598121915.1,286047008.5,N
1598121935.9,286047009.1,N
1598121955.7,286047010.1,Y
1598121975.6,286047003.1,P
1598121995.4,286047005.9,P
1598122015.2,286047006.0,P
1598122035.1,286047004.6,Y
1598122036.0,286047004.6,P
1598122055.8,286047000.2,N
1598122075.7,286047000.5,N
1598122095.5,286046999.4,N
1598122115.3,286046999.6,N
1598122135.2,286046999.3,N
1598122155.0,286046998.4,N
1598122155.9,286046998.4,N
1598122175.7,286047001.0,N
1598122195.6,286046999.8,N
1598122215.4,286047000.4,N
1598122235.3,286047000.0,N
1598122255.1,286047002.2,N
1598122256.0,286047002.2,N
1598122275.8,286047001.8,N
1598122295.7,286047002.2,N
1598122315.5,286047002.3,N
1598122335.3,286046999.9,N
1598122355.2,286047002.4,N
1598122375.0,286047002.5,N
1598122375.9,286047002.5,N
1598122395.8,286047001.5,N
1598122415.6,286047001.8,N
1598122435.4,286047002.1,N
1598122455.3,286047004.1,N
1598122475.1,286047001.7,N
1598122495.8,286047001.6,N
1598122515.7,286047001.3,N
1598122535.5,286047001.4,N
1598122555.4,286047001.4,N
1598122575.2,286047001.4,N
1598122595.0,286047001.8,N
1598122595.9,286047001.8,N
1598122615.8,286047001.3,N
1598122635.6,286047003.9,Y
1598122655.4,286047001.7,P
1598122675.3,286047003.1,P
1598122695.1,286047006.0,P
1598122715.9,286047003.6,N
1598122735.7,286047003.5,N
1598122755.5,286047002.9,N
1598122775.4,286047005.8,Y
1598122795.2,286047002.4,P
